Time,TemperatureF,DewpointF,PressureIn,WindDirection,WindDirectionDegrees,WindSpeedMPH,WindSpeedGustMPH,Humidity,HourlyPrecipIn,Conditions,Clouds,dailyrainin,SoftwareType,DateUTC
2013-08-24 00:13:00,63.7,58.0,30.11,NNW,337,0.0,0.0,82,0.00,,,0.00,weatherlink.com 1.10,2013-08-24 04:13:00,
2013-08-24 00:28:00,63.4,58.0,30.11,NNW,337,0.0,0.0,83,0.00,,,0.00,weatherlink.com 1.10,2013-08-24 04:28:00,
2013-08-24 00:43:00,63.2,58.0,30.11,NNW,337,0.0,0.0,83,0.00,,,0.00,weatherlink.com 1.10,2013-08-24 04:43:00,
2013-08-24 00:58:00,63.1,58.0,30.11,NNW,337,0.0,0.0,83,0.00,,,0.00,weatherlink.com 1.10,2013-08-24 04:58:00,
2013-08-24 01:14:00,63.0,57.0,30.12,NNW,337,0.0,0.0,82,0.00,,,0.00,weatherlink.com 1.10,2013-08-24 05:14:00,
2013-08-24 01:29:00,62.8,57.0,30.12,NNW,337,0.0,0.0,82,0.00,,,0.00,weatherlink.com 1.10,2013-08-24 05:29:00,
2013-08-24 01:44:00,62.8,57.0,30.12,NNW,334,0.0,0.0,82,0.00,,,0.00,weatherlink.com 1.10,2013-08-24 05:44:00,
2013-08-24 01:59:00,62.8,57.0,30.12,NW,321,0.0,1.0,81,0.00,,,0.00,weatherlink.com 1.10,2013-08-24 05:59:00,
2013-08-24 02:14:00,62.5,57.0,30.12,NW,312,1.0,1.0,81,0.00,,,0.00,weatherlink.com 1.10,2013-08-24 06:14:00,
2013-08-24 02:29:00,62.4,57.0,30.13,NNW,333,0.0,1.0,81,0.00,,,0.00,weatherlink.com 1.10,2013-08-24 06:29:00,
2013-08-24 02:44:00,62.0,56.0,30.14,NW,322,0.0,1.0,82,0.00,,,0.00,weatherlink.com 1.10,2013-08-24 06:44:00,
2013-08-24 02:59:00,61.8,56.0,30.14,NW,315,0.0,0.0,82,0.00,,,0.00,weatherlink.com 1.10,2013-08-24 06:59:00,
2013-08-24 03:14:00,61.5,56.0,30.15,NW,316,0.0,0.0,83,0.00,,,0.00,weatherlink.com 1.10,2013-08-24 07:14:00,
2013-08-24 03:29:00,61.2,56.0,30.16,NW,316,0.0,1.0,83,0.00,,,0.00,weatherlink.com 1.10,2013-08-24 07:29:00,
2013-08-24 03:44:00,61.0,56.0,30.16,NW,309,0.0,1.0,84,0.00,,,0.00,weatherlink.com 1.10,2013-08-24 07:44:00,
2013-08-24 03:59:00,61.0,56.0,30.16,North,359,0.0,1.0,84,0.00,,,0.00,weatherlink.com 1.10,2013-08-24 07:59:00,
2013-08-24 04:14:00,61.0,56.0,30.16,NE,44,0.0,2.0,84,0.00,,,0.00,weatherlink.com 1.10,2013-08-24 08:14:00,
2013-08-24 04:29:00,61.0,56.0,30.17,NW,323,0.0,1.0,84,0.00,,,0.00,weatherlink.com 1.10,2013-08-24 08:29:00,
2013-08-24 04:44:00,60.7,56.0,30.18,NW,323,0.0,1.0,85,0.00,,,0.00,weatherlink.com 1.10,2013-08-24 08:44:00,
2013-08-24 04:59:00,60.5,56.0,30.18,NW,323,0.0,1.0,85,0.00,,,0.00,weatherlink.com 1.10,2013-08-24 08:59:00,
2013-08-24 05:14:00,60.5,56.0,30.19,NNW,330,0.0,2.0,85,0.00,,,0.00,weatherlink.com 1.10,2013-08-24 09:14:00,
2013-08-24 05:29:00,60.4,56.0,30.19,North,358,0.0,1.0,86,0.00,,,0.00,weatherlink.com 1.10,2013-08-24 09:29:00,
2013-08-24 05:44:00,60.1,56.0,30.20,NW,306,0.0,0.0,87,0.00,,,0.00,weatherlink.com 1.10,2013-08-24 09:44:00,
2013-08-24 05:59:00,59.7,56.0,30.21,NW,320,0.0,1.0,88,0.00,,,0.00,weatherlink.com 1.10,2013-08-24 09:59:00,
2013-08-24 06:14:00,59.3,56.0,30.22,NW,318,0.0,1.0,88,0.00,,,0.00,weatherlink.com 1.10,2013-08-24 10:14:00,
2013-08-24 06:29:00,59.0,56.0,30.22,NW,319,0.0,1.0,89,0.00,,,0.00,weatherlink.com 1.10,2013-08-24 10:29:00,
2013-08-24 06:44:00,58.8,56.0,30.23,West,280,0.0,2.0,89,0.00,,,0.00,weatherlink.com 1.10,2013-08-24 10:44:00,
2013-08-24 06:59:00,59.3,56.0,30.23,NW,316,2.0,2.0,88,0.00,,,0.00,weatherlink.com 1.10,2013-08-24 10:59:00,
2013-08-24 07:15:00,60.1,56.0,30.24,WNW,288,1.0,2.0,87,0.00,,,0.00,weatherlink.com 1.10,2013-08-24 11:15:00,
2013-08-24 07:30:00,61.6,57.0,30.24,NW,316,2.0,6.0,84,0.00,,,0.00,weatherlink.com 1.10,2013-08-24 11:30:00,
2013-08-24 07:45:00,63.7,57.0,30.25,NW,307,2.0,4.0,80,0.00,,,0.00,weatherlink.com 1.10,2013-08-24 11:45:00,
2013-08-24 08:00:00,65.2,58.0,30.25,NE,46,6.0,6.0,78,0.00,,,0.00,weatherlink.com 1.10,2013-08-24 12:00:00,
2013-08-24 08:15:00,66.3,59.0,30.26,NNE,15,1.0,6.0,76,0.00,,,0.00,weatherlink.com 1.10,2013-08-24 12:15:00,
2013-08-24 08:30:00,66.8,59.0,30.26,NNE,21,3.0,4.0,75,0.00,,,0.00,weatherlink.com 1.10,2013-08-24 12:30:00,
2013-08-24 08:45:00,67.7,59.0,30.26,NE,46,3.0,7.0,74,0.00,,,0.00,weatherlink.com 1.10,2013-08-24 12:45:00,
2013-08-24 09:00:00,68.6,59.0,30.26,NE,48,0.0,5.0,72,0.00,,,0.00,weatherlink.com 1.10,2013-08-24 13:00:00,
2013-08-24 09:15:00,69.7,60.0,30.26,NE,42,1.0,5.0,70,0.00,,,0.00,weatherlink.com 1.10,2013-08-24 13:15:00,
2013-08-24 09:30:00,70.1,58.0,30.26,NW,304,2.0,7.0,66,0.00,,,0.00,weatherlink.com 1.10,2013-08-24 13:30:00,
2013-08-24 09:45:00,71.1,55.0,30.27,NE,54,4.0,8.0,57,0.00,,,0.00,weatherlink.com 1.10,2013-08-24 13:45:00,
2013-08-24 10:00:00,71.7,55.0,30.27,NNW,345,3.0,11.0,55,0.00,,,0.00,weatherlink.com 1.10,2013-08-24 14:00:00,
2013-08-24 10:15:00,71.7,55.0,30.28,NW,304,2.0,8.0,56,0.00,,,0.00,weatherlink.com 1.10,2013-08-24 14:15:00,
2013-08-24 10:30:00,72.1,53.0,30.28,NNW,346,1.0,8.0,52,0.00,,,0.00,weatherlink.com 1.10,2013-08-24 14:30:00,
2013-08-24 10:45:00,72.6,53.0,30.28,North,11,1.0,7.0,51,0.00,,,0.00,weatherlink.com 1.10,2013-08-24 14:45:00,
2013-08-24 11:00:00,72.4,53.0,30.28,ENE,67,2.0,9.0,50,0.00,,,0.00,weatherlink.com 1.10,2013-08-24 15:00:00,
2013-08-24 11:15:00,72.5,53.0,30.28,NW,307,1.0,6.0,50,0.00,,,0.00,weatherlink.com 1.10,2013-08-24 15:15:00,
2013-08-24 11:30:00,73.1,52.0,30.29,WNW,291,3.0,8.0,48,0.00,,,0.00,weatherlink.com 1.10,2013-08-24 15:30:00,
2013-08-24 11:45:00,73.2,53.0,30.29,North,4,1.0,9.0,50,0.00,,,0.00,weatherlink.com 1.10,2013-08-24 15:45:00,
2013-08-24 12:00:00,72.9,52.0,30.29,NNE,18,2.0,8.0,48,0.00,,,0.00,weatherlink.com 1.10,2013-08-24 16:00:00,
2013-08-24 12:15:00,73.7,52.0,30.28,SSW,207,1.0,9.0,46,0.00,,,0.00,weatherlink.com 1.10,2013-08-24 16:15:00,
2013-08-24 12:30:00,73.2,49.0,30.28,ENE,59,2.0,11.0,42,0.00,,,0.00,weatherlink.com 1.10,2013-08-24 16:30:00,
2013-08-24 12:45:00,73.5,48.0,30.29,WNW,293,1.0,12.0,41,0.00,,,0.00,weatherlink.com 1.10,2013-08-24 16:45:00,
2013-08-24 13:00:00,73.4,47.0,30.29,NNE,18,4.0,9.0,39,0.00,,,0.00,weatherlink.com 1.10,2013-08-24 17:00:00,
2013-08-24 13:15:00,73.5,48.0,30.29,NW,308,3.0,7.0,40,0.00,,,0.00,weatherlink.com 1.10,2013-08-24 17:15:00,
2013-08-24 13:30:00,73.6,46.0,30.29,NNW,333,7.0,10.0,38,0.00,,,0.00,weatherlink.com 1.10,2013-08-24 17:30:00,
2013-08-24 13:45:00,73.7,44.0,30.29,NW,320,2.0,10.0,35,0.00,,,0.00,weatherlink.com 1.10,2013-08-24 17:45:00,
2013-08-24 14:00:00,73.6,46.0,30.29,East,82,5.0,14.0,38,0.00,,,0.00,weatherlink.com 1.10,2013-08-24 18:00:00,
2013-08-24 14:15:00,73.6,46.0,30.29,NNW,338,3.0,9.0,37,0.00,,,0.00,weatherlink.com 1.10,2013-08-24 18:15:00,
2013-08-24 14:30:00,73.3,46.0,30.29,North,356,5.0,7.0,38,0.00,,,0.00,weatherlink.com 1.10,2013-08-24 18:30:00,
2013-08-24 14:45:00,73.2,47.0,30.29,NNE,28,3.0,10.0,39,0.00,,,0.00,weatherlink.com 1.10,2013-08-24 18:45:00,
2013-08-24 15:00:00,73.2,47.0,30.29,NE,53,1.0,13.0,39,0.00,,,0.00,weatherlink.com 1.10,2013-08-24 19:00:00,
2013-08-24 15:15:00,73.2,47.0,30.29,North,4,3.0,5.0,39,0.00,,,0.00,weatherlink.com 1.10,2013-08-24 19:15:00,
2013-08-24 15:31:00,72.6,45.0,30.29,WNW,290,1.0,10.0,37,0.00,,,0.00,weatherlink.com 1.10,2013-08-24 19:31:00,
2013-08-24 15:46:00,72.4,43.0,30.29,North,356,2.0,9.0,35,0.00,,,0.00,weatherlink.com 1.10,2013-08-24 19:46:00,
2013-08-24 16:01:00,72.4,43.0,30.29,NNE,32,5.0,7.0,35,0.00,,,0.00,weatherlink.com 1.10,2013-08-24 20:01:00,
2013-08-24 16:16:00,72.5,42.0,30.29,NNE,15,2.0,4.0,34,0.00,,,0.00,weatherlink.com 1.10,2013-08-24 20:16:00,
2013-08-24 16:31:00,72.1,41.0,30.29,North,360,0.0,7.0,33,0.00,,,0.00,weatherlink.com 1.10,2013-08-24 20:31:00,
2013-08-24 16:46:00,71.8,42.0,30.29,West,271,0.0,6.0,34,0.00,,,0.00,weatherlink.com 1.10,2013-08-24 20:46:00,
2013-08-24 17:01:00,71.8,41.0,30.29,East,94,0.0,7.0,33,0.00,,,0.00,weatherlink.com 1.10,2013-08-24 21:01:00,
2013-08-24 17:16:00,71.6,41.0,30.29,NNE,28,0.0,7.0,33,0.00,,,0.00,weatherlink.com 1.10,2013-08-24 21:16:00,
2013-08-24 17:31:00,71.4,42.0,30.29,ENE,77,0.0,5.0,34,0.00,,,0.00,weatherlink.com 1.10,2013-08-24 21:31:00,
2013-08-24 17:46:00,70.9,41.0,30.29,ENE,63,3.0,4.0,34,0.00,,,0.00,weatherlink.com 1.10,2013-08-24 21:46:00,
2013-08-24 18:01:00,70.0,42.0,30.29,NW,324,0.0,1.0,36,0.00,,,0.00,weatherlink.com 1.10,2013-08-24 22:01:00,
2013-08-24 18:16:00,69.4,43.0,30.29,NE,55,0.0,3.0,38,0.00,,,0.00,weatherlink.com 1.10,2013-08-24 22:16:00,
2013-08-24 18:31:00,69.0,44.0,30.29,NE,45,0.0,2.0,40,0.00,,,0.00,weatherlink.com 1.10,2013-08-24 22:31:00,
2013-08-24 18:46:00,68.5,44.0,30.29,North,356,0.0,2.0,42,0.00,,,0.00,weatherlink.com 1.10,2013-08-24 22:46:00,
2013-08-24 19:01:00,68.0,45.0,30.29,ENE,75,0.0,1.0,44,0.00,,,0.00,weatherlink.com 1.10,2013-08-24 23:01:00,
2013-08-24 19:16:00,67.1,44.0,30.29,NNE,28,0.0,1.0,44,0.00,,,0.00,weatherlink.com 1.10,2013-08-24 23:16:00,
2013-08-24 19:31:00,65.7,45.0,30.30,NE,36,0.0,0.0,48,0.00,,,0.00,weatherlink.com 1.10,2013-08-24 23:31:00,
2013-08-24 19:46:00,64.0,46.0,30.30,NE,36,0.0,0.0,53,0.00,,,0.00,weatherlink.com 1.10,2013-08-24 23:46:00,
2013-08-24 20:01:00,62.4,47.0,30.30,NE,36,0.0,0.0,58,0.00,,,0.00,weatherlink.com 1.10,2013-08-25 00:01:00,
2013-08-24 20:16:00,61.3,48.0,30.31,NE,36,0.0,0.0,61,0.00,,,0.00,weatherlink.com 1.10,2013-08-25 00:16:00,
2013-08-24 20:31:00,60.2,48.0,30.32,NE,37,0.0,0.0,64,0.00,,,0.00,weatherlink.com 1.10,2013-08-25 00:31:00,
2013-08-24 20:46:00,59.1,48.0,30.32,NE,36,0.0,0.0,67,0.00,,,0.00,weatherlink.com 1.10,2013-08-25 00:46:00,
2013-08-24 21:01:00,58.4,49.0,30.33,NE,36,0.0,0.0,70,0.00,,,0.00,weatherlink.com 1.10,2013-08-25 01:01:00,
2013-08-24 21:16:00,58.0,49.0,30.33,NE,36,0.0,0.0,73,0.00,,,0.00,weatherlink.com 1.10,2013-08-25 01:16:00,
2013-08-24 21:31:00,57.5,49.0,30.33,NE,37,0.0,0.0,74,0.00,,,0.00,weatherlink.com 1.10,2013-08-25 01:31:00,
2013-08-24 21:46:00,57.0,50.0,30.34,NE,36,0.0,0.0,76,0.00,,,0.00,weatherlink.com 1.10,2013-08-25 01:46:00,
2013-08-24 22:01:00,56.7,50.0,30.33,NE,36,0.0,0.0,78,0.00,,,0.00,weatherlink.com 1.10,2013-08-25 02:01:00,
2013-08-24 22:16:00,56.3,50.0,30.33,NE,36,0.0,0.0,78,0.00,,,0.00,weatherlink.com 1.10,2013-08-25 02:16:00,
2013-08-24 22:31:00,55.9,49.0,30.33,NE,36,0.0,0.0,78,0.00,,,0.00,weatherlink.com 1.10,2013-08-25 02:31:00,
2013-08-24 22:46:00,55.6,49.0,30.33,NE,37,0.0,0.0,79,0.00,,,0.00,weatherlink.com 1.10,2013-08-25 02:46:00,
2013-08-24 23:01:00,55.4,50.0,30.33,NE,36,0.0,0.0,81,0.00,,,0.00,weatherlink.com 1.10,2013-08-25 03:01:00,
2013-08-24 23:16:00,55.3,50.0,30.34,NE,36,0.0,0.0,82,0.00,,,0.00,weatherlink.com 1.10,2013-08-25 03:16:00,
2013-08-24 23:31:00,55.0,50.0,30.34,NE,36,0.0,0.0,83,0.00,,,0.00,weatherlink.com 1.10,2013-08-25 03:31:00,
2013-08-24 23:46:00,54.9,51.0,30.34,NE,36,0.0,0.0,85,0.00,,,0.00,weatherlink.com 1.10,2013-08-25 03:46:00,